GW1975 Weather Reports


Display with metric or nautical units.
time (UTC)temp
F
wind
direction
speed
MPH
gust
MPH
rain 1hr
in
rain 24hr
in
rain mn
in
humidity
%
barometer
mb
20260901220235 99 248 3.0 3.0 0.00 0.00 0.00 35 1015.0
20260901215735 100 253 2.0 5.0 0.00 0.00 0.00 34 1016.0
20260901215236 99 241 1.0 5.0 0.00 0.00 0.00 35 1016.0
20260901214735 99 198 1.0 2.0 0.00 0.00 0.00 35 1016.0
20260901214235 99 223 1.0 5.0 0.00 0.00 0.00 35 1015.0
20260901213735 99 172 2.0 3.0 0.00 0.00 0.00 35 1015.0
20260901213235 98 231 3.0 3.0 0.00 0.00 0.00 36 1015.0
20260901212736 98 249 4.0 5.0 0.00 0.00 0.00 36 1015.0
20260901212235 98 198 2.0 2.0 0.00 0.00 0.00 36 1016.0
20260901211741 98 169 2.0 4.0 0.00 0.00 0.00 36 1015.0
20260901211235 98 235 2.0 3.0 0.00 0.00 0.00 36 1015.0
20260901210735 99 230 2.0 3.0 0.00 0.00 0.00 35 1016.0
20260901210235 99 252 2.0 4.0 0.00 0.00 0.00 36 1016.0
20260901205736 99 266 3.0 5.0 0.00 0.00 0.00 36 1016.0
20260901205235 99 165 0.0 3.0 0.00 0.00 0.00 35 1016.0
20260901204735 98 301 2.0 2.0 0.00 0.00 0.00 36 1016.0
20260901204237 98 296 2.0 3.0 0.00 0.00 0.00 36 1016.0
20260901203735 98 245 2.0 5.0 0.00 0.00 0.00 36 1016.0
20260901203235 98 240 2.0 6.0 0.00 0.00 0.00 36 1016.0
20260901202735 98 250 2.0 3.0 0.00 0.00 0.00 36 1016.0
20260901202235 98 233 5.0 6.0 0.00 0.00 0.00 36 1016.0
20260901201736 98 243 2.0 3.0 0.00 0.00 0.00 36 1016.0
20260901201235 98 131 1.0 4.0 0.00 0.00 0.00 36 1016.0
20260901200735 98 201 2.0 3.0 0.00 0.00 0.00 37 1016.0
20260901200235 98 193 1.0 3.0 0.00 0.00 0.00 36 1016.0
20260901195736 98 169 3.0 4.0 0.00 0.00 0.00 36 1017.0
20260901195235 98 255 2.0 4.0 0.00 0.00 0.00 35 1017.0
20260901194738 98 233 4.0 5.0 0.00 0.00 0.00 36 1016.0
20260901194235 98 237 2.0 3.0 0.00 0.00 0.00 36 1017.0
20260901193735 97 241 4.0 4.0 0.00 0.00 0.00 37 1017.0
20260901193236 97 196 2.0 3.0 0.00 0.00 0.00 37 1017.0
20260901192736 97 227 5.0 5.0 0.00 0.00 0.00 38 1017.0
20260901192236 97 195 2.0 5.0 0.00 0.00 0.00 38 1017.0
20260901191736 96 225 2.0 5.0 0.00 0.00 0.00 39 1017.0
20260901191236 97 237 2.0 3.0 0.00 0.00 0.00 39 1017.0
20260901190735 96 247 2.0 3.0 0.00 0.00 0.00 39 1017.0
20260901190237 96 272 1.0 4.0 0.00 0.00 0.00 39 1017.0
20260901185736 96 232 5.0 5.0 0.00 0.00 0.00 40 1017.0
20260901185235 96 241 3.0 5.0 0.00 0.00 0.00 41 1017.0
20260901184735 95 266 2.0 2.0 0.00 0.00 0.00 42 1017.0
20260901184235 96 269 5.0 8.0 0.00 0.00 0.00 42 1017.0
20260901183736 95 236 3.0 3.0 0.00 0.00 0.00 41 1017.0
20260901183236 95 253 4.0 4.0 0.00 0.00 0.00 41 1017.0
20260901182735 95 265 3.0 5.0 0.00 0.00 0.00 42 1018.0
20260901182235 95 269 3.0 6.0 0.00 0.00 0.00 41 1018.0
20260901181735 95 268 4.0 5.0 0.00 0.00 0.00 42 1018.0
20260901181235 95 262 4.0 4.0 0.00 0.00 0.00 42 1018.0
20260901180738 94 246 2.0 6.0 0.00 0.00 0.00 42 1018.0
20260901180236 93 263 3.0 6.0 0.00 0.00 0.00 45 1018.0
20260901175737 94 243 3.0 8.0 0.00 0.00 0.00 43 1018.0
20260901175235 93 264 3.0 7.0 0.00 0.00 0.00 44 1018.0
20260901174735 93 266 3.0 6.0 0.00 0.00 0.00 45 1018.0
20260901174235 93 253 5.0 5.0 0.00 0.00 0.00 45 1018.0
20260901173735 93 238 3.0 5.0 0.00 0.00 0.00 46 1018.0
20260901173235 92 252 4.0 6.0 0.00 0.00 0.00 46 1018.0
20260901172736 92 232 3.0 5.0 0.00 0.00 0.00 48 1018.0
20260901172235 92 259 3.0 5.0 0.00 0.00 0.00 48 1018.0
20260901171736 92 277 4.0 5.0 0.00 0.00 0.00 49 1018.0
20260901171236 91 268 3.0 6.0 0.00 0.00 0.00 49 1018.0
20260901170737 91 248 4.0 4.0 0.00 0.00 0.00 49 1018.0
20260901170237 91 266 5.0 6.0 0.00 0.00 0.00 49 1018.0
20260901165735 91 244 2.0 5.0 0.00 0.00 0.00 50 1018.0
20260901165235 91 298 3.0 5.0 0.00 0.00 0.00 50 1018.0
20260901164736 91 255 3.0 5.0 0.00 0.00 0.00 51 1019.0
20260901164236 91 304 3.0 4.0 0.00 0.00 0.00 50 1019.0
20260901163735 91 240 4.0 6.0 0.00 0.00 0.00 50 1019.0
20260901163235 91 274 5.0 5.0 0.00 0.00 0.00 50 1019.0
20260901162735 90 252 5.0 6.0 0.00 0.00 0.00 51 1019.0
20260901162236 90 251 3.0 3.0 0.00 0.00 0.00 52 1019.0
20260901161735 90 273 3.0 6.0 0.00 0.00 0.00 52 1019.0
20260901161236 90 309 4.0 5.0 0.00 0.00 0.00 53 1019.0
20260901160736 90 278 3.0 4.0 0.00 0.00 0.00 54 1019.0
20260901160236 89 243 3.0 5.0 0.00 0.00 0.00 54 1019.0
20260901155737 89 263 4.0 6.0 0.00 0.00 0.00 53 1019.0
20260901155235 89 294 4.0 6.0 0.00 0.00 0.00 52 1019.0
20260901154735 89 257 3.0 6.0 0.00 0.00 0.00 53 1019.0
20260901154235 89 271 3.0 5.0 0.00 0.00 0.00 54 1019.0
20260901153735 89 275 4.0 8.0 0.00 0.00 0.00 54 1019.0
20260901153237 88 269 3.0 5.0 0.00 0.00 0.00 55 1019.0
20260901152737 88 269 2.0 5.0 0.00 0.00 0.00 55 1019.0
20260901152235 88 241 3.0 6.0 0.00 0.00 0.00 55 1019.0
20260901151736 88 239 3.0 5.0 0.00 0.00 0.00 55 1019.0
20260901151236 87 234 3.0 4.0 0.00 0.00 0.00 56 1019.0
20260901150736 86 246 4.0 5.0 0.00 0.00 0.00 57 1019.0
20260901150236 87 264 5.0 8.0 0.00 0.00 0.00 56 1019.0
20260901145735 86 236 5.0 6.0 0.00 0.00 0.00 58 1019.0
20260901145235 87 236 3.0 8.0 0.00 0.00 0.00 57 1019.0
20260901144736 87 272 4.0 6.0 0.00 0.00 0.00 57 1019.0
20260901144235 87 241 4.0 6.0 0.00 0.00 0.00 57 1019.0
20260901143736 87 250 2.0 5.0 0.00 0.00 0.00 57 1019.0
20260901143236 86 264 6.0 7.0 0.00 0.00 0.00 57 1019.0
20260901142739 85 239 3.0 5.0 0.00 0.00 0.00 58 1019.0
20260901142236 86 277 3.0 6.0 0.00 0.00 0.00 59 1019.0
20260901141736 85 265 4.0 4.0 0.00 0.00 0.00 60 1019.0
20260901141235 85 246 3.0 5.0 0.00 0.00 0.00 61 1019.0
20260901140736 84 251 3.0 5.0 0.00 0.00 0.00 60 1019.0
20260901140235 84 247 3.0 5.0 0.00 0.00 0.00 61 1019.0
20260901135736 84 247 3.0 4.0 0.00 0.00 0.00 62 1019.0
20260901135235 84 260 4.0 5.0 0.00 0.00 0.00 62 1019.0
20260901134735 84 263 3.0 5.0 0.00 0.00 0.00 61 1019.0
20260901134235 84 243 5.0 5.0 0.00 0.00 0.00 61 1019.0
20260901133736 84 239 3.0 5.0 0.00 0.00 0.00 61 1019.0
20260901133238 84 215 2.0 2.0 0.00 0.00 0.00 62 1019.0
20260901132737 84 246 2.0 3.0 0.00 0.00 0.00 63 1019.0
20260901132236 84 239 2.0 3.0 0.00 0.00 0.00 63 1019.0
20260901131735 83 195 1.0 2.0 0.00 0.00 0.00 65 1019.0
20260901131239 82 216 0.0 3.0 0.00 0.00 0.00 66 1019.0
20260901130736 81 244 1.0 3.0 0.00 0.00 0.00 67 1019.0
20260901130237 80 218 1.0 3.0 0.00 0.00 0.00 68 1019.0
20260901125735 80 202 2.0 2.0 0.00 0.00 0.00 70 1019.0
20260901125235 79 196 1.0 2.0 0.00 0.00 0.00 72 1019.0
20260901124736 78 213 2.0 2.0 0.00 0.00 0.00 73 1019.0
20260901124235 78 258 0.0 2.0 0.00 0.00 0.00 74 1019.0
20260901123735 77 216 2.0 2.0 0.00 0.00 0.00 74 1018.0
20260901123235 77 182 1.0 2.0 0.00 0.00 0.00 74 1019.0
20260901122736 77 228 1.0 2.0 0.00 0.00 0.00 75 1019.0
20260901122235 77 211 2.0 2.0 0.00 0.00 0.00 75 1019.0
20260901121735 77 207 1.0 2.0 0.00 0.00 0.00 75 1019.0
20260901121235 76 222 1.0 2.0 0.00 0.00 0.00 76 1018.0
20260901120736 76 215 2.0 2.0 0.00 0.00 0.00 76 1018.0
20260901120236 76 214 1.0 2.0 0.00 0.00 0.00 76 1018.0
20260901115735 76 224 1.0 2.0 0.00 0.00 0.00 76 1018.0
20260901115235 76 226 1.0 2.0 0.00 0.00 0.00 76 1018.0
20260901114737 76 222 2.0 2.0 0.00 0.00 0.00 77 1018.0
20260901114236 76 207 1.0 2.0 0.00 0.00 0.00 77 1018.0
20260901113735 76 196 0.0 2.0 0.00 0.00 0.00 77 1018.0
20260901113235 76 228 1.0 2.0 0.00 0.00 0.00 76 1018.0
20260901112735 76 162 0.0 2.0 0.00 0.00 0.00 76 1018.0
20260901112236 76 244 1.0 2.0 0.00 0.00 0.00 76 1018.0
20260901111736 76 189 1.0 2.0 0.00 0.00 0.00 76 1018.0
20260901111236 76 231 1.0 2.0 0.00 0.00 0.00 76 1018.0
20260901110736 76 216 1.0 2.0 0.00 0.00 0.00 75 1018.0
20260901110239 77 225 2.0 2.0 0.00 0.00 0.00 75 1018.0
20260901105736 77 222 1.0 2.0 0.00 0.00 0.00 75 1018.0
20260901105236 77 229 2.0 2.0 0.00 0.00 0.00 75 1018.0
20260901104735 77 212 0.0 2.0 0.00 0.00 0.00 75 1018.0
20260901104235 77 227 0.0 2.0 0.00 0.00 0.00 75 1018.0
20260901103736 77 240 1.0 2.0 0.00 0.00 0.00 74 1018.0
20260901103235 77 244 1.0 2.0 0.00 0.00 0.00 74 1018.0
20260901102735 77 239 1.0 2.0 0.00 0.00 0.00 74 1018.0
20260901102236 77 208 1.0 2.0 0.00 0.00 0.00 74 1018.0
20260901101736 77 181 1.0 2.0 0.00 0.00 0.00 74 1018.0
20260901101235 77 220 0.0 2.0 0.00 0.00 0.00 73 1017.0
20260901100735 77 219 1.0 2.0 0.00 0.00 0.00 73 1017.0
20260901100235 78 220 1.0 2.0 0.00 0.00 0.00 73 1017.0
20260901095735 78 221 1.0 2.0 0.00 0.00 0.00 72 1017.0
20260901095235 78 239 1.0 2.0 0.00 0.00 0.00 73 1017.0
20260901094736 78 194 2.0 2.0 0.00 0.00 0.00 72 1017.0
20260901094235 78 230 2.0 2.0 0.00 0.00 0.00 72 1017.0
20260901093735 78 222 1.0 2.0 0.00 0.00 0.00 72 1017.0
20260901093235 78 235 1.0 2.0 0.00 0.00 0.00 71 1017.0
20260901092736 78 240 1.0 2.0 0.00 0.00 0.00 71 1017.0
20260901092236 78 222 1.0 1.0 0.00 0.00 0.00 70 1017.0
20260901091736 79 240 1.0 2.0 0.00 0.00 0.00 70 1017.0
20260901091236 79 252 1.0 1.0 0.00 0.00 0.00 70 1017.0
20260901090735 79 249 1.0 1.0 0.00 0.00 0.00 70 1017.0
20260901090236 79 253 1.0 2.0 0.00 0.00 0.00 70 1017.0
20260901085735 79 247 1.0 2.0 0.00 0.00 0.00 69 1017.0
20260901085236 79 227 1.0 2.0 0.00 0.00 0.00 69 1017.0
20260901084735 79 245 2.0 2.0 0.00 0.00 0.00 69 1017.0
20260901084235 79 255 0.0 2.0 0.00 0.00 0.00 69 1017.0
20260901083735 80 243 1.0 1.0 0.00 0.00 0.00 68 1017.0
20260901083236 80 243 0.0 2.0 0.00 0.00 0.00 68 1017.0
20260901082736 80 241 1.0 2.0 0.00 0.00 0.00 68 1017.0
20260901082235 80 236 1.0 2.0 0.00 0.00 0.00 68 1017.0
20260901081736 80 238 1.0 2.0 0.00 0.00 0.00 67 1017.0
20260901081236 80 227 2.0 2.0 0.00 0.00 0.00 67 1017.0
20260901080736 80 234 1.0 3.0 0.00 0.00 0.00 67 1017.0
20260901080236 80 211 0.0 2.0 0.00 0.00 0.00 67 1017.0
20260901075736 80 207 1.0 2.0 0.00 0.00 0.00 67 1017.0
20260901075235 80 231 2.0 3.0 0.00 0.00 0.00 67 1017.0
20260901074736 80 246 1.0 2.0 0.00 0.00 0.00 68 1017.0
20260901074235 80 235 2.0 2.0 0.00 0.00 0.00 68 1017.0
20260901073738 80 251 1.0 2.0 0.00 0.00 0.00 68 1017.0
20260901073235 80 230 1.0 2.0 0.00 0.00 0.00 68 1017.0
20260901072736 80 224 1.0 2.0 0.00 0.00 0.00 68 1016.0
20260901072235 80 258 0.0 2.0 0.00 0.00 0.00 68 1017.0
20260901071735 80 240 1.0 2.0 0.00 0.00 0.00 68 1017.0
20260901071236 80 229 2.0 2.0 0.00 0.00 0.00 68 1017.0
20260901070735 80 223 2.0 2.0 0.00 0.00 0.00 68 1017.0
20260901070235 80 243 1.0 2.0 0.00 0.00 0.00 68 1017.0
20260901065735 80 236 1.0 2.0 0.00 0.00 0.00 69 1017.0
20260901065235 80 230 1.0 2.0 0.00 0.00 0.00 69 1017.0
20260901064735 80 231 1.0 2.0 0.00 0.00 0.00 69 1017.0
20260901064236 80 247 2.0 2.0 0.00 0.00 0.00 69 1017.0
20260901063737 80 259 1.0 2.0 0.00 0.00 0.00 69 1017.0
20260901063236 80 225 0.0 2.0 0.00 0.00 0.00 69 1017.0
20260901062735 80 232 2.0 2.0 0.00 0.00 0.00 69 1017.0
20260901062236 80 233 1.0 2.0 0.00 0.00 0.00 69 1017.0
20260901061735 80 250 1.0 2.0 0.00 0.00 0.00 69 1017.0
20260901061236 80 236 1.0 2.0 0.00 0.00 0.00 69 1017.0
20260901060744 80 256 1.0 2.0 0.00 0.00 0.00 69 1017.0
20260901060236 80 233 0.0 2.0 0.00 0.00 0.00 69 1017.0
20260901055736 80 274 1.0 2.0 0.00 0.00 0.00 69 1017.0
20260901055235 80 256 2.0 2.0 0.00 0.00 0.00 69 1017.0
20260901054736 80 203 0.0 2.0 0.00 0.00 0.00 69 1017.0
20260901054235 80 228 2.0 2.0 0.00 0.00 0.00 69 1017.0
20260901053735 80 255 1.0 2.0 0.00 0.00 0.00 68 1017.0
20260901053236 80 249 1.0 2.0 0.00 0.00 0.00 68 1017.0
20260901052737 80 251 1.0 2.0 0.00 0.00 0.00 68 1017.0
20260901052235 80 227 2.0 2.0 0.00 0.00 0.00 68 1017.0
20260901051735 81 255 2.0 2.0 0.00 0.00 0.00 68 1017.0
20260901051235 81 245 2.0 2.0 0.00 0.00 0.00 68 1017.0
20260901050735 81 255 1.0 2.0 0.00 0.00 0.00 68 1017.0
20260901050236 81 243 1.0 2.0 0.00 0.00 0.00 67 1017.0
20260901045735 81 239 1.0 2.0 0.00 0.00 0.00 67 1017.0
20260901045236 81 243 1.0 2.0 0.00 0.00 0.00 67 1017.0
20260901044735 81 268 1.0 2.0 0.00 0.00 0.00 67 1017.0
20260901044235 81 283 1.0 3.0 0.00 0.00 0.00 67 1017.0
20260901043735 81 257 2.0 2.0 0.00 0.00 0.00 67 1017.0
20260901043235 81 230 2.0 2.0 0.00 0.00 0.00 67 1017.0
20260901042736 81 241 1.0 2.0 0.00 0.00 0.00 66 1017.0
20260901042236 81 267 1.0 2.0 0.00 0.00 0.00 66 1017.0
20260901041735 81 268 1.0 2.0 0.00 0.00 0.00 66 1017.0
20260901041235 82 258 2.0 2.0 0.00 0.00 0.00 65 1017.0
20260901040735 82 244 2.0 3.0 0.00 0.00 0.00 65 1017.0
20260901040235 82 236 2.0 2.0 0.00 0.00 0.00 65 1017.0
20260901035736 82 247 2.0 2.0 0.00 0.00 0.00 64 1017.0
20260901035236 82 264 2.0 2.0 0.00 0.00 0.00 64 1017.0
20260901034735 82 262 1.0 2.0 0.00 0.00 0.00 64 1017.0
20260901034236 82 259 2.0 2.0 0.00 0.00 0.00 64 1017.0
20260901033736 82 271 1.0 2.0 0.00 0.00 0.00 64 1017.0
20260901033235 83 264 2.0 2.0 0.00 0.00 0.00 64 1017.0
20260901032736 83 266 1.0 2.0 0.00 0.00 0.00 64 1017.0
20260901032236 83 254 1.0 2.0 0.00 0.00 0.00 64 1017.0
20260901031735 83 258 1.0 2.0 0.00 0.00 0.00 64 1017.0
20260901031236 83 250 1.0 2.0 0.00 0.00 0.00 64 1017.0
20260901030736 83 252 1.0 2.0 0.00 0.00 0.00 64 1017.0
20260901030235 83 242 1.0 2.0 0.00 0.00 0.00 63 1017.0
20260901025735 83 263 1.0 2.0 0.00 0.00 0.00 63 1017.0
20260901025235 83 269 1.0 2.0 0.00 0.00 0.00 63 1017.0
20260901024736 84 253 0.0 2.0 0.00 0.00 0.00 63 1017.0
20260901024236 84 267 1.0 2.0 0.00 0.00 0.00 62 1017.0
20260901023735 84 266 1.0 2.0 0.00 0.00 0.00 62 1017.0
20260901023236 84 266 1.0 2.0 0.00 0.00 0.00 62 1017.0
20260901022735 84 266 1.0 2.0 0.00 0.00 0.00 61 1017.0
20260901022236 84 268 1.0 1.0 0.00 0.00 0.00 61 1017.0
20260901021737 85 257 1.0 3.0 0.00 0.00 0.00 61 1017.0
20260901021236 85 252 1.0 2.0 0.00 0.00 0.00 60 1017.0
20260901020735 85 256 1.0 2.0 0.00 0.00 0.00 59 1017.0
20260901020236 86 255 1.0 2.0 0.00 0.00 0.00 59 1017.0
20260901015735 86 279 1.0 2.0 0.00 0.00 0.00 58 1016.0
20260901015236 86 264 1.0 2.0 0.00 0.00 0.00 58 1016.0
20260901014736 86 258 1.0 2.0 0.00 0.00 0.00 57 1016.0
20260901014237 87 256 1.0 2.0 0.00 0.00 0.00 56 1016.0
20260901013735 87 262 2.0 2.0 0.00 0.00 0.00 55 1016.0
20260901013235 87 245 1.0 2.0 0.00 0.00 0.00 54 1016.0
20260901012735 88 253 2.0 2.0 0.00 0.00 0.00 53 1016.0
20260901012236 89 252 1.0 2.0 0.00 0.00 0.00 52 1016.0
20260901011255 89 258 2.0 2.0 0.00 0.00 0.00 50 1016.0
20260901010735 90 264 1.0 2.0 0.00 0.00 0.00 49 1016.0
20260901010236 90 258 2.0 2.0 0.00 0.00 0.00 48 1016.0
20260901005735 91 260 1.0 2.0 0.00 0.00 0.00 47 1016.0
20260901005235 91 243 2.0 2.0 0.00 0.00 0.00 46 1016.0
20260901004738 92 249 2.0 2.0 0.00 0.00 0.00 45 1016.0
20260901004235 92 252 2.0 2.0 0.00 0.00 0.00 44 1016.0
20260901003735 93 252 2.0 2.0 0.00 0.00 0.00 43 1016.0
20260901003236 93 250 2.0 2.0 0.00 0.00 0.00 42 1016.0
20260901002736 94 260 1.0 2.0 0.00 0.00 0.00 41 1016.0
20260901002235 94 248 1.0 3.0 0.00 0.00 0.00 40 1016.0
20260901001735 95 245 2.0 3.0 0.00 0.00 0.00 38 1016.0
20260901001235 95 233 2.0 2.0 0.00 0.00 0.00 37 1016.0
20260901000736 96 252 2.0 2.0 0.00 0.00 0.00 37 1016.0
20260901000235 96 253 2.0 2.0 0.00 0.00 0.00 37 1016.0
20260831235736 97 251 2.0 2.0 0.00 0.00 0.00 37 1016.0
20260831235235 97 250 2.0 3.0 0.00 0.00 0.00 36 1016.0
20260831234735 97 244 2.0 3.0 0.00 0.00 0.00 37 1016.0
20260831234236 97 239 2.0 4.0 0.00 0.00 0.00 36 1016.0
20260831233735 98 235 3.0 4.0 0.00 0.00 0.00 36 1016.0
20260831233236 98 235 3.0 5.0 0.00 0.00 0.00 36 1016.0
20260831232735 98 240 3.0 3.0 0.00 0.00 0.00 37 1016.0
20260831232236 98 249 3.0 4.0 0.00 0.00 0.00 36 1016.0
20260831231735 99 275 3.0 5.0 0.00 0.00 0.00 35 1016.0
20260831231235 99 259 4.0 5.0 0.00 0.00 0.00 35 1016.0
20260831230736 99 265 5.0 5.0 0.00 0.00 0.00 35 1016.0
20260831230235 100 240 4.0 4.0 0.00 0.00 0.00 34 1016.0
20260831225735 99 234 2.0 5.0 0.00 0.00 0.00 34 1016.0
20260831225235 100 253 2.0 4.0 0.00 0.00 0.00 34 1016.0
20260831224735 99 247 4.0 5.0 0.00 0.00 0.00 35 1015.0
20260831224235 99 264 3.0 6.0 0.00 0.00 0.00 34 1015.0
20260831223735 100 265 3.0 5.0 0.00 0.00 0.00 35 1015.0
20260831223235 100 219 2.0 5.0 0.00 0.00 0.00 34 1015.0
20260831222736 100 242 1.0 3.0 0.00 0.00 0.00 35 1016.0
20260831222235 99 214 1.0 4.0 0.00 0.00 0.00 35 1016.0
20260831221736 100 241 5.0 5.0 0.00 0.00 0.00 35 1015.0
20260831221236 99 243 1.0 3.0 0.00 0.00 0.00 35 1016.0
20260831220736 99 266 3.0 5.0 0.00 0.00 0.00 34 1016.0